Tracking 34138 objects as of 15-May-2026
HD Live streaming from Space Station
objects crossing your sky now

STARLINK-36916

Track STARLINK-36916 now!
10-day predictions
STARLINK-36916 is classified as:


NORAD ID: 68022
Int'l Code: 2026-040H
Perigee: 471.7 km
Apogee: 473.6 km
Inclination: 97.3 °
Period: 93.9 minutes
Semi major axis: 6843 km
RCS: Unknown
Launch date: March 1, 2026
Source: United States (US)
Launch site: AIR FORCE WESTERN TEST RANGE (AFWTR)
Your satellite tracking list
Your tracking list is empty




NASA's NSSDC Master Catalog

Two Line Element Set (TLE):
1 68022U 26040H   26134.61114913  .00011182  00000-0  34816-3 0  9990
2 68022  97.2865  83.7402 0001406  89.0975 271.0429 15.33447453 11567
Source of the keplerian elements: AFSPC